Time,TemperatureF,DewpointF,PressureIn,WindDirection,WindDirectionDegrees,WindSpeedMPH,WindSpeedGustMPH,Humidity,HourlyPrecipIn,Conditions,Clouds,dailyrainin,SoftwareType,DateUTC
2013-06-07 00:02:00,84.0,-99.9,-100.00,West,271,16.0,25.0,-999,-99.99,,,-99.99,,2013-06-07 07:02:00,
2013-06-07 00:12:00,84.0,-99.9,-100.00,West,271,16.0,25.0,-999,-99.99,,,-99.99,,2013-06-07 07:12:00,
2013-06-07 00:52:00,84.0,-99.9,-100.00,WNW,282,6.0,21.0,-999,-99.99,,,-99.99,,2013-06-07 07:52:00,
2013-06-07 01:02:00,84.0,-99.9,-100.00,NW,312,1.0,8.0,-999,-99.99,,,-99.99,,2013-06-07 08:02:00,
2013-06-07 01:12:00,84.0,-99.9,-100.00,NW,312,1.0,8.0,-999,-99.99,,,-99.99,,2013-06-07 08:12:00,
2013-06-07 01:22:00,84.0,-99.9,-100.00,West,259,5.0,12.0,-999,-99.99,,,-99.99,,2013-06-07 08:22:00,
2013-06-07 01:32:00,84.0,-99.9,-100.00,West,259,5.0,12.0,-999,-99.99,,,-99.99,,2013-06-07 08:32:00,
2013-06-07 02:40:00,81.0,-99.9,-100.00,West,265,11.0,12.0,-999,-99.99,,,-99.99,,2013-06-07 09:40:00,
2013-06-07 03:03:00,82.0,-99.9,-100.00,SSW,197,2.0,12.0,-999,-99.99,,,-99.99,,2013-06-07 10:03:00,
2013-06-07 03:13:00,82.0,-99.9,-100.00,SSW,197,2.0,12.0,-999,-99.99,,,-99.99,,2013-06-07 10:13:00,
2013-06-07 03:23:00,81.0,-99.9,-100.00,West,265,11.0,12.0,-999,-99.99,,,-99.99,,2013-06-07 10:23:00,
2013-06-07 03:33:00,81.0,-99.9,-100.00,West,265,11.0,12.0,-999,-99.99,,,-99.99,,2013-06-07 10:33:00,
2013-06-07 05:22:00,81.0,-99.9,-100.00,WNW,290,5.0,16.0,-999,-99.99,,,-99.99,,2013-06-07 12:22:00,
2013-06-07 05:33:00,81.0,-99.9,-100.00,WNW,290,5.0,16.0,-999,-99.99,,,-99.99,,2013-06-07 12:33:00,
2013-06-07 07:40:00,88.0,-99.9,-100.00,NW,319,2.0,5.0,-999,-99.99,,,-99.99,,2013-06-07 14:40:00,
2013-06-07 08:23:00,88.0,-99.9,-100.00,NW,319,2.0,5.0,-999,-99.99,,,-99.99,,2013-06-07 15:23:00,
2013-06-07 08:33:00,88.0,-99.9,-100.00,NW,319,2.0,5.0,-999,-99.99,,,-99.99,,2013-06-07 15:33:00,
2013-06-07 08:53:00,89.0,-99.9,-100.00,NW,321,0.0,2.0,-999,-99.99,,,-99.99,,2013-06-07 15:53:00,
2013-06-07 09:03:00,89.0,-99.9,-100.00,NW,321,0.0,2.0,-999,-99.99,,,-99.99,,2013-06-07 16:03:00,
2013-06-07 09:13:00,89.0,-99.9,-100.00,NW,321,0.0,2.0,-999,-99.99,,,-99.99,,2013-06-07 16:13:00,
2013-06-07 11:00:00,103.0,-99.9,-100.00,SSW,205,0.0,3.0,-999,-99.99,,,-99.99,,2013-06-07 18:00:00,
2013-06-07 11:38:00,103.0,-99.9,-100.00,SSW,205,0.0,3.0,-999,-99.99,,,-99.99,,2013-06-07 18:38:00,
2013-06-07 12:05:00,105.0,-99.9,-100.00,NNW,338,1.0,1.0,-999,-99.99,,,-99.99,,2013-06-07 19:05:00,
2013-06-07 12:55:00,109.0,-99.9,-100.00,South,177,0.0,4.0,-999,-99.99,,,-99.99,,2013-06-07 19:55:00,
2013-06-07 13:00:00,105.0,-99.9,-100.00,NNW,338,1.0,1.0,-999,-99.99,,,-99.99,,2013-06-07 20:00:00,
2013-06-07 13:43:00,109.0,-99.9,-100.00,South,177,0.0,4.0,-999,-99.99,,,-99.99,,2013-06-07 20:43:00,
2013-06-07 13:53:00,109.0,-99.9,-100.00,South,177,0.0,4.0,-999,-99.99,,,-99.99,,2013-06-07 20:53:00,
2013-06-07 14:10:00,110.0,-99.9,-100.00,ESE,120,0.0,3.0,-999,-99.99,,,-99.99,,2013-06-07 21:10:00,
2013-06-07 15:05:00,110.0,-99.9,-100.00,ESE,120,0.0,3.0,-999,-99.99,,,-99.99,,2013-06-07 22:05:00,
2013-06-07 16:40:00,107.0,-99.9,-100.00,West,276,8.0,15.0,-999,-99.99,,,-99.99,,2013-06-07 23:40:00,
2013-06-07 17:07:00,109.0,-99.9,-100.00,WSW,243,7.0,14.0,-999,-99.99,,,-99.99,,2013-06-08 00:07:00,
2013-06-07 17:14:00,109.0,-99.9,-100.00,SW,220,0.0,9.0,-999,-99.99,,,-99.99,,2013-06-08 00:14:00,
2013-06-07 17:19:00,109.0,-99.9,-100.00,SW,220,0.0,9.0,-999,-99.99,,,-99.99,,2013-06-08 00:19:00,
2013-06-07 17:25:00,105.0,-99.9,-100.00,WNW,288,9.0,12.0,-999,-99.99,,,-99.99,,2013-06-08 00:25:00,
2013-06-07 17:32:00,107.0,-99.9,-100.00,West,276,8.0,15.0,-999,-99.99,,,-99.99,,2013-06-08 00:32:00,
2013-06-07 18:05:00,104.0,-99.9,-100.00,WNW,299,8.0,16.0,-999,-99.99,,,-99.99,,2013-06-08 01:05:00,
2013-06-07 18:08:00,105.0,-99.9,-100.00,WNW,288,9.0,12.0,-999,-99.99,,,-99.99,,2013-06-08 01:08:00,
2013-06-07 18:22:00,105.0,-99.9,-100.00,WNW,288,9.0,12.0,-999,-99.99,,,-99.99,,2013-06-08 01:22:00,
2013-06-07 19:05:00,101.0,-99.9,-100.00,WSW,257,8.0,14.0,-999,-99.99,,,-99.99,,2013-06-08 02:05:00,
2013-06-07 20:00:00,96.0,-99.9,-100.00,WNW,285,7.0,17.0,-999,-99.99,,,-99.99,,2013-06-08 03:00:00,
2013-06-07 20:01:00,101.0,-99.9,-100.00,WSW,257,8.0,14.0,-999,-99.99,,,-99.99,,2013-06-08 03:01:00,
2013-06-07 21:03:00,94.0,-99.9,-100.00,West,273,5.0,18.0,-999,-99.99,,,-99.99,,2013-06-08 04:03:00,
2013-06-07 21:13:00,94.0,-99.9,-100.00,West,273,5.0,18.0,-999,-99.99,,,-99.99,,2013-06-08 04:13:00,
2013-06-07 22:32:00,91.0,-99.9,-100.00,South,169,2.0,4.0,-999,-99.99,,,-99.99,,2013-06-08 05:32:00,
2013-06-07 22:42:00,91.0,-99.9,-100.00,South,169,2.0,4.0,-999,-99.99,,,-99.99,,2013-06-08 05:42:00,
2013-06-07 22:53:00,91.0,-99.9,-100.00,ESE,116,0.0,9.0,-999,-99.99,,,-99.99,,2013-06-08 05:53:00,
2013-06-07 23:02:00,91.0,-99.9,-100.00,ESE,116,0.0,9.0,-999,-99.99,,,-99.99,,2013-06-08 06:02:00,